Location: Gälforsberget
(66.6500°N, 22.4167°E)
Time: 21:38:04
(UTC+00:00)

Ariane Rocket - Pass Details

Date: 11 April 2026
Orbit: 755 x 763 km, 98.4° (Epoch: 16 May)

Event Time Altitude Azimuth Distance (km) Brightness Sun altitude
Exits shadow 19:46:51 - 170° (S) 2,535 5.2 -9.1°
Reaches altitude 10° 19:47:29 10° 172° (S) 2,286 5.0 -9.2°
Maximum altitude 19:52:29 64° 254° (WSW) 840 3.3 -9.5°
Drops below altitude 10° 19:57:31 10° 336° (NNW) 2,301 6.9 -9.8°
Sets 19:59:51 0° 340° (NNW) 3,231 7.9 -10.0°
